Friday, November 24, 2017, 1:20 PM GMT
Back to Local

CWDQ, La Tuque

Location: , , Canada Lat: 47.417
Local Time: 1:20 PM GMT (13:20 GMT) Lon: -72.8
Time Zone: GMT Elev: 554 ft

Show me the last for .
Show Decoded

2017-11-24 13:00 METAR CWDQ 241300Z AUTO 00000KT M11/M12 RMK AO1 SOG 10 1015 SLP137 T11131120 =
2017-11-24 12:00 METAR CWDQ 241200Z AUTO 03002KT M12/M13 RMK AO1 SOG 10 1020 SLP131 T11191128 =
2017-11-24 11:00 METAR CWDQ 241100Z AUTO 32003KT M09/M12 RMK AO1 SOG 10 1030 SLP129 T10941123 =
2017-11-24 10:00 METAR CWDQ 241000Z AUTO 35006KT M07/M10 RMK AO1 SOG 10 1035 SLP120 T10651100 =
2017-11-24 09:00 METAR CWDQ 240900Z AUTO 33008KT M04/M08 RMK AO1 SOG 10 3033 SLP108 T10441078 =
2017-11-24 08:00 METAR CWDQ 240800Z AUTO 32005KT M03/M06 RMK AO1 SOG 10 3022 SLP097 T10251060 =
2017-11-24 07:00 METAR CWDQ 240700Z AUTO 17003KT M04/M05 RMK AO1 SOG 10 3007 SLP084 T10381051 =
2017-11-24 06:00 METAR CWDQ 240600Z AUTO 17004KT M04/M05 RMK AO1 SOG 10 6003 SLP075 T10411053 =
2017-11-24 05:00 METAR CWDQ 240500Z AUTO 16005KT M04/M06 RMK AO1 SOG 10 6009 SLP075 T10441058 =
2017-11-24 04:00 METAR CWDQ 240400Z AUTO 17005KT M05/M06 RMK AO1 SOG 10 6015 SLP077 T10481062 =
2017-11-24 03:00 METAR CWDQ 240300Z AUTO 16005KT M05/M06 RMK AO1 SOG 10 7020 SLP078 T10531055 =
2017-11-24 02:00 METAR CWDQ 240200Z AUTO 17005KT M06/M07 RMK AO1 SOG 09 8019 SLP085 T10561067 =
2017-11-24 01:00 METAR CWDQ 240100Z AUTO 17006KT M05/M07 RMK AO1 SOG 09 8016 SLP093 T10451071 =
2017-11-24 00:00 METAR CWDQ 240000Z AUTO 16004KT M06/M07 RMK AO1 SOG 09 8012 SLP100 T10571072 =
2017-11-23 23:00 METAR CWDQ 232300Z AUTO 16004KT M06/M07 RMK AO1 SOG 09 7012 SLP105 T10561072 =
2017-11-23 22:00 METAR CWDQ 232200Z AUTO 16004KT M05/M08 RMK AO1 SOG 10 6014 SLP109 T10451076 =
2017-11-23 21:00 METAR CWDQ 232100Z AUTO 16004KT M05/M08 RMK AO1 SOG 10 6022 SLP111 T10451081 =
2017-11-23 20:00 METAR CWDQ 232000Z AUTO 17006KT M06/M09 RMK AO1 SOG 10 7024 SLP116 T10561087 =
2017-11-23 19:00 METAR CWDQ 231900Z AUTO 18006KT M05/M09 RMK AO1 SOG 10 6029 SLP123 T10541091 =
2017-11-23 18:00 METAR CWDQ 231800Z AUTO 18005KT M06/M10 RMK AO1 SOG 10 6035 SLP134 T10601101
                 50010 =
2017-11-23 17:00 METAR CWDQ 231700Z AUTO 19005KT M07/M11 RMK AO1 SOG 10 8031 SLP141 T10681108
                 50010 =
2017-11-23 16:00 METAR CWDQ 231600Z AUTO 19005KT M07/M11 RMK AO1 0PAST HR SOG 10 8020 SLP153
                 P0004 T10721110 50010 =
2017-11-23 15:00 METAR CWDQ 231500Z AUTO 21003KT M08/M12 RMK AO1 SOG 10 8002 SLP170 T10751115 =
2017-11-23 14:00 METAR CWDQ 231400Z AUTO 19002KT M08/M12 RMK AO1 SOG 10 0002 SLP173 T10831119 =

Support USWX by starting your Amazon purchase here.